time, Switch, Flow(0), Analog(2)
yyyy/mm/dd HH:MM:SS.fff, True=FILTERED|False=TOTAL, L/min, V
2023/07/10 17:00:03.636, True, 4.642, 0.123751
2023/07/10 17:00:04.140, True, 4.311, 0.123827
2023/07/10 17:00:04.636, True, 4.049, 0.125124
2023/07/10 17:00:05.139, True, 4.304, 0.125048
2023/07/10 17:00:05.635, True, 4.044, 0.122759
2023/07/10 17:00:06.140, True, 3.979, 0.124056
2023/07/10 17:00:06.644, True, 3.979, 0.123369
2023/07/10 17:00:07.140, True, 4.044, 0.124208
2023/07/10 17:00:07.644, True, 4.310, 0.126116
2023/07/10 17:00:08.148, True, 3.980, 0.123064
2023/07/10 17:00:08.651, True, 4.313, 0.123980
2023/07/10 17:00:09.147, True, 4.042, 0.123140
2023/07/10 17:00:09.652, True, 3.980, 0.125200
2023/07/10 17:00:10.155, True, 3.978, 0.124285
2023/07/10 17:00:10.652, True, 4.381, 0.125734
2023/07/10 17:00:11.156, True, 3.979, 0.125200
2023/07/10 17:00:11.660, True, 3.978, 0.123598
2023/07/10 17:00:12.156, True, 4.044, 0.124971
2023/07/10 17:00:12.659, True, 3.979, 0.124056
2023/07/10 17:00:13.164, True, 3.983, 0.124132
2023/07/10 17:00:13.659, True, 4.039, 0.124437
2023/07/10 17:00:14.164, True, 3.981, 0.124666
2023/07/10 17:00:14.667, True, 3.646, 0.125429
2023/07/10 17:00:15.163, True, 4.044, 0.123980
2023/07/10 17:00:15.668, True, 3.981, 0.123445
2023/07/10 17:00:16.171, True, 3.978, 0.124666
2023/07/10 17:00:16.675, True, 4.313, 0.123827
2023/07/10 17:00:17.172, True, 4.041, 0.124743
2023/07/10 17:00:17.676, True, 3.985, 0.123751
2023/07/10 17:00:18.171, True, 4.040, 0.126345
2023/07/10 17:00:18.676, True, 3.977, 0.123369
2023/07/10 17:00:19.179, True, 3.979, 0.125963
2023/07/10 17:00:19.675, True, 4.044, 0.124437
2023/07/10 17:00:20.180, True, 3.978, 0.125124
2023/07/10 17:00:20.683, True, 3.980, 0.127489
2023/07/10 17:00:21.179, True, 4.044, 0.126650
2023/07/10 17:00:21.684, True, 3.978, 0.126955
2023/07/10 17:00:22.187, True, 4.311, 0.129778
2023/07/10 17:00:22.683, True, 4.044, 0.127337
2023/07/10 17:00:23.188, True, 3.979, 0.129854
2023/07/10 17:00:23.691, True, 3.648, 0.128099
2023/07/10 17:00:24.187, True, 4.045, 0.126879
2023/07/10 17:00:24.692, True, 3.979, 0.127031
2023/07/10 17:00:25.195, True, 4.310, 0.127260
2023/07/10 17:00:25.692, True, 4.044, 0.130083
2023/07/10 17:00:26.196, True, 3.986, 0.127565
2023/07/10 17:00:26.699, True, 3.972, 0.128023
2023/07/10 17:00:27.196, True, 4.046, 0.131380
2023/07/10 17:00:27.699, True, 3.980, 0.128176
2023/07/10 17:00:28.203, True, 3.976, 0.129015
2023/07/10 17:00:28.699, True, 4.044, 0.127718
2023/07/10 17:00:29.203, True, 3.980, 0.126268
2023/07/10 17:00:29.708, True, 3.978, 0.126955
2023/07/10 17:00:30.204, True, 3.707, 0.129854
2023/07/10 17:00:30.708, True, 3.979, 0.127565
2023/07/10 17:00:31.212, True, 3.978, 0.127337
2023/07/10 17:00:31.708, True, 4.044, 0.130083
2023/07/10 17:00:32.212, True, 4.312, 0.128099
2023/07/10 17:00:32.716, True, 3.978, 0.128557
2023/07/10 17:00:33.212, True, 4.051, 0.128023
2023/07/10 17:00:33.715, True, 3.972, 0.128939
2023/07/10 17:00:34.219, True, 3.978, 0.129168
2023/07/10 17:00:34.724, True, 3.980, 0.127794
2023/07/10 17:00:35.220, True, 4.043, 0.126268
2023/07/10 17:00:35.723, True, 3.979, 0.127642
2023/07/10 17:00:36.228, True, 3.648, 0.127337
2023/07/10 17:00:36.723, True, 3.704, 0.130617
2023/07/10 17:00:37.228, True, 3.980, 0.127642
2023/07/10 17:00:37.732, True, 3.979, 0.127718
2023/07/10 17:00:38.228, True, 4.044, 0.128786
2023/07/10 17:00:38.732, True, 3.980, 0.132601
2023/07/10 17:00:39.236, True, 3.979, 0.128939
2023/07/10 17:00:39.732, True, 4.048, 0.129473
2023/07/10 17:00:40.236, True, 3.974, 0.129244
2023/07/10 17:00:40.739, True, 3.982, 0.127642
2023/07/10 17:00:41.236, True, 3.704, 0.130083
2023/07/10 17:00:41.739, True, 4.311, 0.127489
2023/07/10 17:00:42.244, True, 3.981, 0.129320
2023/07/10 17:00:42.740, True, 4.042, 0.128786
2023/07/10 17:00:43.244, True, 3.979, 0.128634
2023/07/10 17:00:43.748, True, 3.979, 0.128862
2023/07/10 17:00:44.244, True, 3.708, 0.129931
2023/07/10 17:00:44.747, True, 3.979, 0.128405
2023/07/10 17:00:45.252, True, 4.312, 0.128023
2023/07/10 17:00:45.747, True, 4.042, 0.128176
2023/07/10 17:00:46.252, True, 3.980, 0.128252
2023/07/10 17:00:46.756, True, 3.987, 0.129702
2023/07/10 17:00:47.251, True, 4.040, 0.128557
2023/07/10 17:00:47.756, True, 3.974, 0.128786
2023/07/10 17:00:48.260, True, 4.311, 0.128252
2023/07/10 17:00:48.756, True, 4.044, 0.129091
2023/07/10 17:00:49.260, True, 3.979, 0.127108
2023/07/10 17:00:49.763, True, 3.985, 0.127642
2023/07/10 17:00:50.260, True, 4.038, 0.129778
2023/07/10 17:00:50.764, True, 3.985, 0.129473
2023/07/10 17:00:51.268, True, 3.972, 0.128862
2023/07/10 17:00:51.764, True, 4.045, 0.127718
2023/07/10 17:00:52.268, True, 3.983, 0.126802
2023/07/10 17:00:52.771, True, 3.978, 0.128023
2023/07/10 17:00:53.276, True, 3.647, 0.126345
2023/07/10 17:00:53.771, True, 4.049, 0.128252
2023/07/10 17:00:54.275, True, 3.973, 0.128252
2023/07/10 17:00:54.779, True, 3.977, 0.126879
2023/07/10 17:00:55.276, True, 4.045, 0.126268
2023/07/10 17:00:55.779, True, 3.647, 0.128634
2023/07/10 17:00:56.283, True, 3.979, 0.127565
2023/07/10 17:00:56.779, True, 4.044, 0.127871
2023/07/10 17:00:57.284, True, 3.979, 0.126726
2023/07/10 17:00:57.787, True, 3.979, 0.126879
2023/07/10 17:00:58.291, True, 3.979, 0.127642
2023/07/10 17:00:58.787, True, 4.045, 0.126650
2023/07/10 17:00:59.291, True, 4.310, 0.129168
2023/07/10 17:00:59.795, True, 3.984, 0.128481
2023/07/10 17:01:00.292, True, 4.039, 0.126192
2023/07/10 17:01:00.796, True, 3.978, 0.127108
2023/07/10 17:01:01.291, True, 4.043, 0.127489
2023/07/10 17:01:01.795, True, 4.311, 0.128710
2023/07/10 17:01:02.300, True, 3.981, 0.128252
2023/07/10 17:01:02.796, True, 4.041, 0.127260
2023/07/10 17:01:03.300, True, 4.312, 0.129549
2023/07/10 17:01:03.803, True, 3.978, 0.126802
2023/07/10 17:01:04.299, True, 4.043, 0.126192
2023/07/10 17:01:04.804, True, 3.988, 0.126802
2023/07/10 17:01:05.307, True, 4.302, 0.129168
2023/07/10 17:01:05.803, True, 4.044, 0.127718
2023/07/10 17:01:06.308, True, 3.982, 0.126345
2023/07/10 17:01:06.811, True, 4.308, 0.126650
2023/07/10 17:01:07.307, True, 4.047, 0.127108
2023/07/10 17:01:07.811, True, 3.979, 0.127337
2023/07/10 17:01:08.316, True, 3.982, 0.125658
2023/07/10 17:01:08.812, True, 4.038, 0.125429
2023/07/10 17:01:09.315, True, 3.982, 0.127031
2023/07/10 17:01:09.820, True, 4.311, 0.128557
2023/07/10 17:01:10.316, True, 4.040, 0.126650
2023/07/10 17:01:10.820, True, 3.984, 0.126879
2023/07/10 17:01:11.323, True, 3.648, 0.128099
2023/07/10 17:01:11.828, True, 3.977, 0.125505
2023/07/10 17:01:12.323, True, 4.038, 0.127031
2023/07/10 17:01:12.827, True, 3.980, 0.127031
2023/07/10 17:01:13.332, True, 3.980, 0.127947
2023/07/10 17:01:13.827, True, 4.043, 0.129244
2023/07/10 17:01:14.332, True, 3.985, 0.127794
2023/07/10 17:01:14.835, True, 3.976, 0.127108
2023/07/10 17:01:15.332, True, 4.046, 0.127413
2023/07/10 17:01:15.836, True, 3.974, 0.126802
2023/07/10 17:01:16.332, True, 4.042, 0.127565
2023/07/10 17:01:16.835, True, 3.980, 0.127260
2023/07/10 17:01:17.340, True, 3.986, 0.127489
2023/07/10 17:01:17.836, True, 4.039, 0.127871
2023/07/10 17:01:18.339, True, 3.976, 0.126802
2023/07/10 17:01:18.843, True, 3.981, 0.126116
2023/07/10 17:01:19.340, True, 4.042, 0.126345
2023/07/10 17:01:19.844, True, 3.978, 0.123445
2023/07/10 17:01:20.348, True, 3.986, 0.129397
2023/07/10 17:01:20.844, True, 4.039, 0.126802
2023/07/10 17:01:21.348, True, 3.977, 0.126040
2023/07/10 17:01:21.852, True, 4.310, 0.125048
2023/07/10 17:01:22.348, True, 4.043, 0.125811
2023/07/10 17:01:22.852, True, 3.980, 0.125277
2023/07/10 17:01:23.356, True, 3.983, 0.125277
2023/07/10 17:01:23.852, True, 4.039, 0.126116
2023/07/10 17:01:24.356, True, 3.979, 0.127337
2023/07/10 17:01:24.860, True, 3.980, 0.125887
2023/07/10 17:01:25.356, True, 4.046, 0.126955
2023/07/10 17:01:25.860, True, 3.981, 0.126650
2023/07/10 17:01:26.363, True, 3.976, 0.124971
2023/07/10 17:01:26.860, True, 3.706, 0.126497
2023/07/10 17:01:27.363, True, 3.979, 0.124361
2023/07/10 17:01:27.868, True, 3.979, 0.128481
2023/07/10 17:01:28.363, True, 4.044, 0.125429
2023/07/10 17:01:28.868, True, 3.979, 0.126040
2023/07/10 17:01:29.372, True, 3.979, 0.127108
2023/07/10 17:01:29.875, True, 3.980, 0.125734
2023/07/10 17:01:30.372, True, 4.042, 0.126650
2023/07/10 17:01:30.876, True, 4.312, 0.126116
2023/07/10 17:01:31.372, True, 3.706, 0.125353
2023/07/10 17:01:31.876, True, 3.979, 0.127565
2023/07/10 17:01:32.380, True, 3.979, 0.126192
2023/07/10 17:01:32.884, True, 3.979, 0.126192
2023/07/10 17:01:33.380, True, 4.044, 0.124819
2023/07/10 17:01:33.884, True, 3.980, 0.125734
2023/07/10 17:01:34.387, True, 3.647, 0.126192
2023/07/10 17:01:34.883, True, 4.049, 0.125505
2023/07/10 17:01:35.388, True, 3.974, 0.125963
2023/07/10 17:01:35.892, True, 4.311, 0.125429
2023/07/10 17:01:36.388, True, 4.049, 0.126650
2023/07/10 17:01:36.891, True, 4.311, 0.126345
2023/07/10 17:01:37.396, True, 3.973, 0.126345
2023/07/10 17:01:37.892, True, 4.043, 0.124819
2023/07/10 17:01:38.396, True, 3.981, 0.126726
2023/07/10 17:01:38.900, True, 3.978, 0.124743
2023/07/10 17:01:39.395, True, 4.044, 0.122530
2023/07/10 17:01:39.900, True, 3.648, 0.129091
2023/07/10 17:01:40.396, True, 4.044, 0.126268
2023/07/10 17:01:40.900, True, 3.647, 0.125658
2023/07/10 17:01:41.404, True, 4.310, 0.123064
2023/07/10 17:01:41.907, True, 3.979, 0.127337
2023/07/10 17:01:42.404, True, 3.707, 0.124666
2023/07/10 17:01:42.908, True, 3.979, 0.127260
2023/07/10 17:01:43.411, True, 3.978, 0.126955
2023/07/10 17:01:43.907, True, 4.044, 0.124285
2023/07/10 17:01:44.412, True, 3.979, 0.126345
2023/07/10 17:01:44.916, True, 3.980, 0.125277
2023/07/10 17:01:45.412, True, 4.043, 0.125734
2023/07/10 17:01:45.915, True, 4.310, 0.125963
2023/07/10 17:01:46.420, True, 3.980, 0.127413
2023/07/10 17:01:46.916, True, 4.044, 0.125811
2023/07/10 17:01:47.420, True, 4.314, 0.124819
2023/07/10 17:01:47.924, True, 3.978, 0.125200
2023/07/10 17:01:48.420, True, 4.042, 0.125048
2023/07/10 17:01:48.924, True, 3.979, 0.124743
2023/07/10 17:01:49.428, True, 3.978, 0.126726
2023/07/10 17:01:49.924, True, 4.044, 0.127108
2023/07/10 17:01:50.428, True, 3.979, 0.126650
2023/07/10 17:01:50.932, True, 4.311, 0.125734
2023/07/10 17:01:51.428, True, 4.043, 0.125505
2023/07/10 17:01:51.932, True, 3.983, 0.123827
2023/07/10 17:01:52.436, True, 3.975, 0.124590
2023/07/10 17:01:52.932, True, 4.044, 0.124437
2023/07/10 17:01:53.436, True, 3.982, 0.127260
2023/07/10 17:01:53.932, True, 4.041, 0.124361
2023/07/10 17:01:54.435, True, 3.979, 0.123369
2023/07/10 17:01:54.940, True, 3.979, 0.125277
2023/07/10 17:01:55.436, True, 4.380, 0.124132
2023/07/10 17:01:55.940, True, 3.980, 0.123903
2023/07/10 17:01:56.443, True, 4.317, 0.124208
2023/07/10 17:01:56.948, True, 3.973, 0.126268
2023/07/10 17:01:57.444, True, 4.043, 0.126345
2023/07/10 17:01:57.948, True, 3.980, 0.124743
2023/07/10 17:01:58.452, True, 3.978, 0.125124
2023/07/10 17:01:58.948, True, 4.043, 0.126497
2023/07/10 17:01:59.452, True, 3.979, 0.122606
2023/07/10 17:01:59.955, True, 3.980, 0.126268
2023/07/10 17:02:00.452, True, 3.706, 0.123293
2023/07/10 17:02:00.956, True, 3.980, 0.126116
2023/07/10 17:02:01.460, True, 3.979, 0.125582
2023/07/10 17:02:01.956, True, 4.383, 0.126345
2023/07/10 17:02:02.460, True, 3.979, 0.125124
2023/07/10 17:02:02.964, True, 3.976, 0.125505
2023/07/10 17:02:03.460, True, 4.044, 0.122759
2023/07/10 17:02:03.964, True, 3.979, 0.125734
2023/07/10 17:02:04.468, True, 4.313, 0.125811
2023/07/10 17:02:04.964, True, 4.046, 0.126116
2023/07/10 17:02:05.468, True, 3.979, 0.123217
2023/07/10 17:02:05.972, True, 3.974, 0.126040
2023/07/10 17:02:06.468, True, 4.380, 0.125582
2023/07/10 17:02:06.972, True, 3.978, 0.125048
2023/07/10 17:02:07.475, True, 3.986, 0.124666
2023/07/10 17:02:07.980, True, 3.982, 0.126192
2023/07/10 17:02:08.476, True, 4.035, 0.127794
2023/07/10 17:02:08.980, True, 3.980, 0.125658
2023/07/10 17:02:09.476, True, 4.044, 0.125124
2023/07/10 17:02:09.980, True, 3.985, 0.126268
2023/07/10 17:02:10.484, True, 3.972, 0.123445
2023/07/10 17:02:10.980, True, 4.044, 0.126421
2023/07/10 17:02:11.484, True, 3.979, 0.123674
2023/07/10 17:02:11.988, True, 4.311, 0.124590
2023/07/10 17:02:12.484, True, 4.049, 0.125277
2023/07/10 17:02:12.988, True, 3.978, 0.126650
2023/07/10 17:02:13.492, True, 4.306, 0.126421
2023/07/10 17:02:13.988, True, 4.042, 0.123522
2023/07/10 17:02:14.492, True, 4.311, 0.126345
2023/07/10 17:02:14.996, True, 3.985, 0.125429
2023/07/10 17:02:15.500, True, 3.979, 0.124361
2023/07/10 17:02:15.996, True, 4.037, 0.125277
2023/07/10 17:02:16.500, True, 3.982, 0.125277
2023/07/10 17:02:17.004, True, 4.308, 0.123522
2023/07/10 17:02:17.500, True, 4.043, 0.123903
2023/07/10 17:02:18.003, True, 3.979, 0.125811
2023/07/10 17:02:18.508, True, 4.312, 0.125429
2023/07/10 17:02:19.003, True, 4.046, 0.122911
2023/07/10 17:02:19.508, True, 3.976, 0.124361
2023/07/10 17:02:20.012, True, 4.311, 0.124971
2023/07/10 17:02:20.516, True, 3.979, 0.124056
2023/07/10 17:02:21.012, True, 4.044, 0.125353
2023/07/10 17:02:21.516, True, 3.979, 0.124208
2023/07/10 17:02:22.019, True, 3.979, 0.125277
2023/07/10 17:02:22.524, True, 3.980, 0.125658
2023/07/10 17:02:23.020, True, 4.043, 0.125048
2023/07/10 17:02:23.523, True, 3.979, 0.124285
2023/07/10 17:02:24.028, True, 4.311, 0.125048
2023/07/10 17:02:24.524, True, 3.706, 0.124208
2023/07/10 17:02:25.028, True, 3.979, 0.123217
2023/07/10 17:02:25.532, True, 3.979, 0.127489
2023/07/10 17:02:26.028, True, 4.043, 0.123522
2023/07/10 17:02:26.531, True, 3.979, 0.124361
2023/07/10 17:02:27.036, True, 3.979, 0.124666
2023/07/10 17:02:27.531, True, 4.043, 0.126879
2023/07/10 17:02:28.036, True, 3.979, 0.124743
2023/07/10 17:02:28.539, True, 3.980, 0.124437
2023/07/10 17:02:29.044, True, 3.979, 0.124361
2023/07/10 17:02:29.540, True, 4.043, 0.125353
2023/07/10 17:02:30.043, True, 3.986, 0.125658
2023/07/10 17:02:30.547, True, 3.972, 0.124361
2023/07/10 17:02:31.043, True, 4.044, 0.125353
2023/07/10 17:02:31.547, True, 3.981, 0.124132
2023/07/10 17:02:32.051, True, 3.976, 0.123827
2023/07/10 17:02:32.547, True, 4.046, 0.123293
2023/07/10 17:02:33.052, True, 3.979, 0.125429
2023/07/10 17:02:33.548, True, 3.708, 0.123903
2023/07/10 17:02:34.051, True, 3.976, 0.127184
2023/07/10 17:02:34.556, True, 3.650, 0.125963
2023/07/10 17:02:35.052, True, 4.045, 0.124437
2023/07/10 17:02:35.556, True, 3.977, 0.124743
2023/07/10 17:02:36.051, True, 4.042, 0.124056
2023/07/10 17:02:36.555, True, 3.984, 0.125124
2023/07/10 17:02:37.060, True, 4.310, 0.124590
2023/07/10 17:02:37.564, True, 3.974, 0.122911
2023/07/10 17:02:38.060, True, 4.049, 0.123903
2023/07/10 17:02:38.563, True, 3.979, 0.124743
2023/07/10 17:02:39.068, True, 3.980, 0.124056
2023/07/10 17:02:39.564, True, 4.381, 0.124285
2023/07/10 17:02:40.067, True, 3.980, 0.123445
2023/07/10 17:02:40.572, True, 3.981, 0.124666
2023/07/10 17:02:41.068, True, 4.036, 0.123903
2023/07/10 17:02:41.572, True, 3.978, 0.123522
2023/07/10 17:02:42.075, True, 4.311, 0.124056
2023/07/10 17:02:42.572, True, 4.045, 0.126421
2023/07/10 17:02:43.075, True, 3.985, 0.122683
2023/07/10 17:02:43.580, True, 3.974, 0.125734
2023/07/10 17:02:44.084, True, 3.646, 0.124971
2023/07/10 17:02:44.579, True, 4.050, 0.125353
2023/07/10 17:02:45.084, True, 3.972, 0.127031
2023/07/10 17:02:45.588, True, 3.647, 0.124971
2023/07/10 17:02:46.084, True, 4.043, 0.122911
2023/07/10 17:02:46.588, True, 3.979, 0.124437
2023/07/10 17:02:47.092, True, 3.979, 0.125887
2023/07/10 17:02:47.588, True, 4.043, 0.122911
2023/07/10 17:02:48.092, True, 3.979, 0.122835
2023/07/10 17:02:48.588, True, 3.714, 0.122835
2023/07/10 17:02:49.091, True, 3.972, 0.124819
2023/07/10 17:02:49.596, True, 3.979, 0.125048
2023/07/10 17:02:50.099, True, 3.979, 0.124666
2023/07/10 17:02:50.596, True, 3.706, 0.124056
2023/07/10 17:02:51.100, True, 3.980, 0.123827
2023/07/10 17:02:51.604, True, 4.310, 0.124132
2023/07/10 17:02:52.108, True, 3.979, 0.123674
2023/07/10 17:02:52.604, True, 4.043, 0.123369
2023/07/10 17:02:53.108, True, 4.310, 0.122835
2023/07/10 17:02:53.612, True, 3.981, 0.122988
2023/07/10 17:02:54.108, True, 4.042, 0.122530
2023/07/10 17:02:54.612, True, 3.979, 0.127108
2023/07/10 17:02:55.116, True, 3.979, 0.123445
2023/07/10 17:02:55.611, True, 4.045, 0.123674
2023/07/10 17:02:56.116, True, 4.309, 0.123903
2023/07/10 17:02:56.619, True, 3.983, 0.125582
2023/07/10 17:02:57.124, True, 3.976, 0.125811
2023/07/10 17:02:57.620, True, 3.705, 0.124514
2023/07/10 17:02:58.124, True, 4.312, 0.123751
2023/07/10 17:02:58.620, True, 3.707, 0.125582
2023/07/10 17:02:59.124, True, 3.979, 0.126040
2023/07/10 17:02:59.628, True, 3.978, 0.122988
2023/07/10 17:03:00.132, True, 3.980, 0.123369
2023/07/10 17:03:00.628, True, 4.043, 0.124208
2023/07/10 17:03:01.132, True, 3.980, 0.124819
2023/07/10 17:03:01.636, True, 3.979, 0.123445
2023/07/10 17:03:02.132, True, 3.706, 0.124971
2023/07/10 17:03:02.635, True, 3.647, 0.122454
2023/07/10 17:03:03.140, True, 3.980, 0.122225
2023/07/10 17:03:03.644, True, 3.979, 0.124971
2023/07/10 17:03:04.140, True, 4.043, 0.123598
2023/07/10 17:03:04.644, True, 3.979, 0.125048
2023/07/10 17:03:05.148, True, 3.979, 0.122454
2023/07/10 17:03:05.644, True, 4.044, 0.121996
2023/07/10 17:03:06.148, True, 3.979, 0.124819
2023/07/10 17:03:06.652, True, 3.979, 0.126497
2023/07/10 17:03:07.148, True, 4.045, 0.124666
2023/07/10 17:03:07.652, True, 3.978, 0.123598
2023/07/10 17:03:08.155, True, 3.980, 0.122759
2023/07/10 17:03:08.652, True, 4.043, 0.124743
2023/07/10 17:03:09.155, True, 3.980, 0.122148
2023/07/10 17:03:09.660, True, 3.978, 0.124514
2023/07/10 17:03:10.156, True, 4.044, 0.123217
2023/07/10 17:03:10.660, True, 3.982, 0.124437
2023/07/10 17:03:11.164, True, 3.645, 0.125200
2023/07/10 17:03:11.667, True, 3.978, 0.123369
2023/07/10 17:03:12.164, True, 4.044, 0.125734
2023/07/10 17:03:12.668, True, 3.979, 0.123751
2023/07/10 17:03:13.164, True, 4.044, 0.124819
2023/07/10 17:03:13.668, True, 3.979, 0.124666
2023/07/10 17:03:14.172, True, 3.981, 0.126192
2023/07/10 17:03:14.668, True, 3.706, 0.123903
2023/07/10 17:03:15.172, True, 3.980, 0.123903
2023/07/10 17:03:15.676, True, 3.977, 0.123522
2023/07/10 17:03:16.172, True, 4.044, 0.125505
2023/07/10 17:03:16.676, True, 3.979, 0.124208
2023/07/10 17:03:17.180, True, 3.979, 0.125429
2023/07/10 17:03:17.683, True, 3.986, 0.126192
2023/07/10 17:03:18.180, True, 4.038, 0.125277
2023/07/10 17:03:18.684, True, 3.979, 0.123064
2023/07/10 17:03:19.188, True, 3.979, 0.125811
2023/07/10 17:03:19.684, True, 3.713, 0.124590
2023/07/10 17:03:20.188, True, 3.972, 0.124819
2023/07/10 17:03:20.691, True, 3.979, 0.125582
2023/07/10 17:03:21.188, True, 4.384, 0.125658
2023/07/10 17:03:21.692, True, 3.976, 0.126421
2023/07/10 17:03:22.196, True, 3.648, 0.122530
2023/07/10 17:03:22.700, True, 3.979, 0.122225
2023/07/10 17:03:23.196, True, 3.707, 0.124132
2023/07/10 17:03:23.700, True, 3.978, 0.124819
2023/07/10 17:03:24.204, True, 3.980, 0.124056
2023/07/10 17:03:24.700, True, 4.043, 0.123674
2023/07/10 17:03:25.204, True, 4.311, 0.124285
2023/07/10 17:03:25.708, True, 3.979, 0.124819
2023/07/10 17:03:26.211, True, 3.978, 0.124208
2023/07/10 17:03:26.708, True, 4.044, 0.121843
2023/07/10 17:03:27.212, True, 3.978, 0.124819
2023/07/10 17:03:27.716, True, 4.311, 0.125048
2023/07/10 17:03:28.212, True, 4.044, 0.124514
2023/07/10 17:03:28.716, True, 3.979, 0.121843
2023/07/10 17:03:29.220, True, 3.979, 0.125429
2023/07/10 17:03:29.716, True, 4.043, 0.125963
2023/07/10 17:03:30.220, True, 3.980, 0.122072
2023/07/10 17:03:30.724, True, 3.980, 0.124743
2023/07/10 17:03:31.220, True, 4.043, 0.123445
2023/07/10 17:03:31.724, True, 3.982, 0.122377
2023/07/10 17:03:32.228, True, 3.977, 0.123445
2023/07/10 17:03:32.732, True, 3.979, 0.125505
2023/07/10 17:03:33.228, True, 4.042, 0.123903
2023/07/10 17:03:33.732, True, 3.980, 0.122454
2023/07/10 17:03:34.235, True, 3.647, 0.123445
2023/07/10 17:03:34.732, True, 3.707, 0.124208
2023/07/10 17:03:35.235, True, 3.652, 0.124971
2023/07/10 17:03:35.740, True, 3.974, 0.124208
2023/07/10 17:03:36.235, True, 3.707, 0.123293
2023/07/10 17:03:36.740, True, 3.979, 0.123522
2023/07/10 17:03:37.244, True, 3.978, 0.122530
2023/07/10 17:03:37.740, True, 4.043, 0.124285
2023/07/10 17:03:38.244, True, 4.312, 0.123522
2023/07/10 17:03:38.747, True, 3.978, 0.124361
2023/07/10 17:03:39.244, True, 4.046, 0.125048
2023/07/10 17:03:39.748, True, 3.977, 0.126116
2023/07/10 17:03:40.252, True, 4.316, 0.127718
2023/07/10 17:03:40.748, True, 4.038, 0.122606
2023/07/10 17:03:41.252, True, 3.980, 0.125429
2023/07/10 17:03:41.756, True, 3.980, 0.124361
2023/07/10 17:03:42.252, True, 4.043, 0.122225
2023/07/10 17:03:42.755, True, 3.978, 0.123445
2023/07/10 17:03:43.260, True, 3.987, 0.125658
2023/07/10 17:03:43.764, True, 3.973, 0.121843
2023/07/10 17:03:44.260, True, 4.043, 0.122606
2023/07/10 17:03:44.764, True, 4.311, 0.122301
2023/07/10 17:03:45.268, True, 3.978, 0.124285
2023/07/10 17:03:45.764, True, 4.048, 0.124437
2023/07/10 17:03:46.268, True, 4.307, 0.123598
2023/07/10 17:03:46.771, True, 3.982, 0.124743
2023/07/10 17:03:47.268, True, 4.041, 0.124514
2023/07/10 17:03:47.772, True, 3.978, 0.124437
2023/07/10 17:03:48.275, True, 3.986, 0.123293
2023/07/10 17:03:48.772, True, 4.036, 0.125048
2023/07/10 17:03:49.276, True, 4.311, 0.122683
2023/07/10 17:03:49.779, True, 3.984, 0.123217
2023/07/10 17:03:50.284, True, 3.974, 0.125200
2023/07/10 17:03:50.780, True, 4.045, 0.123369
2023/07/10 17:03:51.284, True, 4.312, 0.124208
2023/07/10 17:03:51.788, True, 3.977, 0.125124
2023/07/10 17:03:52.292, True, 4.311, 0.123827
2023/07/10 17:03:52.788, True, 4.052, 0.123980
2023/07/10 17:03:53.292, True, 3.974, 0.123751
2023/07/10 17:03:53.795, True, 3.976, 0.124056
2023/07/10 17:03:54.292, True, 3.706, 0.122835
2023/07/10 17:03:54.795, True, 4.312, 0.123827
2023/07/10 17:03:55.299, True, 3.977, 0.121691
2023/07/10 17:03:55.796, True, 4.045, 0.123445
2023/07/10 17:03:56.300, True, 3.981, 0.124666
2023/07/10 17:03:56.795, True, 4.040, 0.122683
2023/07/10 17:03:57.299, True, 3.980, 0.123369
2023/07/10 17:03:57.804, True, 3.982, 0.123369
2023/07/10 17:03:58.308, True, 3.976, 0.124514
2023/07/10 17:03:58.803, True, 4.043, 0.123980
2023/07/10 17:03:59.308, True, 3.985, 0.124361
2023/07/10 17:03:59.803, True, 4.041, 0.123064
2023/07/10 17:04:00.308, True, 3.977, 0.121309
2023/07/10 17:04:00.812, True, 4.309, 0.123903
2023/07/10 17:04:01.316, True, 3.979, 0.126726
2023/07/10 17:04:01.811, True, 4.049, 0.124285
2023/07/10 17:04:02.316, True, 3.974, 0.126345
2023/07/10 17:04:02.820, True, 3.653, 0.123674
2023/07/10 17:04:03.316, True, 4.042, 0.124056
2023/07/10 17:04:03.820, True, 3.974, 0.126345
2023/07/10 17:04:04.323, True, 4.311, 0.125048
2023/07/10 17:04:04.820, True, 4.044, 0.123598
2023/07/10 17:04:05.324, True, 3.987, 0.124132
2023/07/10 17:04:05.828, True, 3.978, 0.123751
2023/07/10 17:04:06.323, True, 4.037, 0.122683
2023/07/10 17:04:06.828, True, 3.979, 0.124208
2023/07/10 17:04:07.332, True, 3.988, 0.124971
2023/07/10 17:04:07.827, True, 4.042, 0.122225
2023/07/10 17:04:08.332, True, 3.973, 0.123598
2023/07/10 17:04:08.836, True, 4.314, 0.123140
2023/07/10 17:04:09.332, True, 4.040, 0.124590
2023/07/10 17:04:09.835, True, 3.979, 0.122072
2023/07/10 17:04:10.340, True, 3.979, 0.123827
2023/07/10 17:04:10.836, True, 4.044, 0.123903
2023/07/10 17:04:11.340, True, 3.978, 0.122454
2023/07/10 17:04:11.835, True, 4.045, 0.124819
2023/07/10 17:04:12.340, True, 3.977, 0.124056
2023/07/10 17:04:12.844, True, 3.986, 0.123293